Home > Time Zones > World Clock > Weather > Iran > Rasht > Past weeks

Flag for Iran Weather past 2 weeks in Rasht, Iran

Now
73 °F

Fog.


Feels Like: 73 °F
Forecast: 67 / 75 °F
Wind: 7 mph from West

Location: Rasht Airport

Current Time: Sep 21, 2014 at 11:31:08 AM

Latest Report: Sep 21, 2014 at 11:00 AM


Visibility: 2 mi

Pressure: 29.89 "Hg

Humidity: 83%

Dew point: 68 °F

Location of RashtLocation

Historic Weather in Rasht — Graph

°F

Rasht temperature yesterday

Maximum temperature yesterday: 79 °F (at 12:30 PM)
Minimum temperature yesterday: 72 °F (at 1:30 AM)
Average temperature yesterday: 75 °F

Past Weeks' High & Low Weather Summary

 TemperatureHumidityPressure
High90 °F (Sep 9, 3:30 PM)100% (Sep 9, 6:30 AM)30.09 "Hg (Sep 9, 6:30 AM)
Low66 °F (Sep 7, 6:30 AM)40% (Sep 7, 2:30 PM)29.68 "Hg (Sep 9, 3:30 PM)
Average78 °F72%29.87 "Hg
* Reported Sep 6 9:30 AM — Sep 21 10:00 AM, Rasht, Weather by CustomWeather, © 2014

Note: Actual official high and low records may vary slightly from our data, if they occured in-between our weather recording intervals... More about our weather records

Advertising

Rasht weather history for previous 24 hours

 ConditionsComfort  
Time TempWeatherWind HumidityBarometerVisibility
10:00 AM
Sep 21
73 °FFog.5 mph83%29.89 "Hg2 mi
9:30 AM73 °FFog.5 mph83%29.89 "Hg2 mi
9:00 AM72 °FFog.7 mph94%29.86 "Hg2 mi
8:30 AM70 °FFog.5 mph100%29.86 "Hg1 mi
8:00 AM70 °FFog.5 mph94%29.86 "Hg1 mi
7:00 AM70 °FFog.5 mph94%29.86 "Hg1 mi
6:30 AM70 °FFog.5 mph94%29.86 "Hg1 mi
1:30 AM72 °FFog.No wind88%29.86 "Hg1 mi
12:30 AM72 °FFog.5 mph94%29.86 "Hg1 mi
11:30 PM
Sep 20
72 °FFog.12 mph94%29.86 "Hg1 mi
10:30 PM72 °FFog.7 mph88%29.86 "Hg1 mi
9:30 PM73 °FFog.7 mph89%29.86 "Hg1 mi
6:00 PM77 °FBroken clouds.5 mph74%29.83 "Hg1 mi
5:30 PM77 °FBroken clouds.5 mph74%29.83 "Hg1 mi
5:00 PM79 °FBroken clouds.5 mph70%29.83 "Hg1 mi
4:30 PM79 °FBroken clouds.7 mph70%29.83 "Hg1 mi
4:00 PM79 °FBroken clouds.9 mph70%29.86 "Hg1 mi
3:30 PM79 °FBroken clouds.7 mph70%29.86 "Hg1 mi
3:00 PM79 °FBroken clouds.5 mph65%29.89 "Hg1 mi
2:30 PM77 °FBroken clouds.5 mph74%29.89 "Hg1 mi
2:00 PM77 °FBroken clouds.9 mph74%29.92 "Hg1 mi
1:30 PM75 °FFog.7 mph83%29.92 "Hg1 mi
1:00 PM77 °FMore clouds than sun.9 mph83%29.95 "Hg1 mi
12:30 PM79 °FBroken clouds.7 mph79%29.95 "Hg2 mi
12:00 PM77 °FFog.7 mph94%29.98 "Hg2 mi
11:30 AM77 °FFog.7 mph94%29.98 "Hg3 mi
11:00 AM75 °FFog.7 mph89%29.98 "Hg3 mi
Weather by CustomWeather, © 2014

See weather overviewHow to use our weather pages